User: anonymous   Login
Location: Unspecified
(0.0000°N, 0.0000°E)
Time: 04:04:47
(UTC+00:00)
Language:

Tiangong 2 - Orbit

View from above orbital plane
View from above orbital plane
View from above satellite
View from above satellite

Ground track
Ground track

The orbit data is extracted from the following two-line orbital elements,

1 41765U 16057A   17328.77097222  .00006677  00000-0  86098-4 0  9990
2 41765  42.7827 120.6647 0004414 282.1216 282.2804 15.59611205 68045
Epoch (UTC): 24 November 2017 18:30:12
Eccentricity: 0.0004414
inclination: 42.7827°
perigee height: 386 km
apogee height: 392 km
right ascension of ascending node: 120.6647°
argument of perigee: 282.1216°
revolutions per day: 15.59611205
mean anomaly at epoch: 282.2804°
orbit number at epoch: 6804

The dashed part of the orbit path shows where the satellite is in the earth's shadow,  

DLR